Regional Weather Roundup
Issued by NWS

Home | Current Version | Previous Version | Text Only | Print | Product List | Glossary On
Versions: 1 2 3 4 5 6 7 8 9 10 11 12 13 14 15 16 17 18 19 20 21 22 23 24 25 26 27 28 29 30 31 32 33 34 35 36 37 38 39 40 41 42 43 44 45 46 47 48 49 50
000
ASUS43 KMKX 191810
RWRWI

WISCONSIN REGIONAL WEATHER ROUNDUP
NATIONAL WEATHER SERVICE MILWAUKEE/SULLIVAN WI
1200 PM CST THU JAN 19 2017

NOTE: "FAIR" INDICATES FEW OR NO CLOUDS BELOW 12,000 FEET WITH NO
SIGNIFICANT WEATHER AND/OR OBSTRUCTIONS TO VISIBILITY.

WIZ001-002-006>008-014>016-023>028-191900-
NORTHWEST WISCONSIN

CITY           SKY/WX    TMP DP  RH WIND       PRES   REMARKS
SUPERIOR ARPT  SUNNY     42  33  70 SW7       29.75F
6HR MIN TEMP:  33; 6HR MAX TEMP:  42;

ASHLAND        SUNNY     43  34  70 S8        29.78F
6HR MIN TEMP:  30; 6HR MAX TEMP:  43;

HAYWARD        SUNNY     40  32  73 S8        29.79F WCI  34
6HR MIN TEMP:  32; 6HR MAX TEMP:  40;

SIREN          SUNNY     42  32  68 S9        29.77F
6HR MIN TEMP:  29; 6HR MAX TEMP:  42;

CUMBERLAND     CLOUDY    32  32 100 SE7       29.79F FOG     WCI  26
RICE LAKE      CLOUDY    33  32  99 SE9       29.83F FOG     WCI  25
6HR MIN TEMP:  30; 6HR MAX TEMP:  33;

CHETEK         CLOUDY    32  32 100 SE8       29.82F FOG     WCI  25
LADYSMITH      CLOUDY    35  34  99 SE6       29.83F FOG     WCI  30
6HR MIN TEMP:  33; 6HR MAX TEMP:  35;

EAU CLAIRE     SUNNY     37  32  82 SE6       29.82F WCI  32
6HR MIN TEMP:  28; 6HR MAX TEMP:  37;

MENOMONIE        N/A    N/A N/A N/A MISG        N/A
NEW RICHMOND   SUNNY     38  31  77 S8        29.79F WCI  32
6HR MIN TEMP:  29; 6HR MAX TEMP:  38; 6HR PCP:  0.03;

OSCEOLA        SUNNY     39  32  76 SE7       29.80F WCI  34
6HR MIN TEMP:  29; 6HR MAX TEMP:  39;

$$

WIZ003>005-009-010-017-018-191900-
NORTH CENTRAL WISCONSIN

CITY           SKY/WX    TMP DP  RH WIND       PRES   REMARKS
MANITOWISH WTR PTSUNNY   36  35  96 S7        29.81F WCI  30
ARBOR VITAE    PTSUNNY   37  36  96 S6        29.81F FOG     WCI  32
6HR MIN TEMP:  32; 6HR MAX TEMP:  37;

WOODRUFF       PTSUNNY   37  36  96 S6        29.81F FOG     WCI  32
6HR MIN TEMP:  32; 6HR MAX TEMP:  37;

RHINELANDER    PTSUNNY   34  34 100 W3        29.82F FOG
6HR MIN TEMP:  31; 6HR MAX TEMP:  34;

EAGLE RIVER    PTSUNNY   35  34  95 S3        29.81F FOG
6HR MIN TEMP:  31; 6HR MAX TEMP:  35;

LAND O LAKES   CLOUDY    36  34  94 S7        29.82F FOG     WCI  30
6HR MIN TEMP:  32; 6HR MAX TEMP:  36;

PHILLIPS       PTSUNNY   35  33  93 CALM      29.80F
6HR MIN TEMP:  31; 6HR MAX TEMP:  35;

TOMAHAWK       CLOUDY    33  32  95 S3        29.83F FOG
6HR MIN TEMP:  31; 6HR MAX TEMP:  33;

MEDFORD        FOG       31  31 100 SE5       29.82F VSB 1/4 WCI  26
6HR MIN TEMP:  31; 6HR MAX TEMP:  31;

MERRILL        FOG       33  33 100 S3          N/A  VSB 3/4
6HR MIN TEMP:  31; 6HR MAX TEMP:  33;

$$

WIZ029-030-035-036-043>047-191900-
CENTRAL WISCONSIN

CITY           SKY/WX    TMP DP  RH WIND       PRES   REMARKS
WAUSAU         FOG       32  32 100 SE6       29.84F VSB 1/4 WCI  26
6HR MIN TEMP:  31; 6HR MAX TEMP:  32;

MOSINEE        FOG       32  32 100 SE5       29.86F VSB 1/8 WCI  27
MARSHFIELD     FOG       32  31  96 SE8       29.84F VSB<1/4 WCI  25
6HR MIN TEMP:  31; 6HR MAX TEMP:  32;

STEVENS POINT  FOG       31  31 100 SE3G10    29.89S VSB 1/2
6HR MIN TEMP:  30; 6HR MAX TEMP:  31;

WAUPACA        FOG       36  34  93 CALM      29.91F VSB 3/4
6HR MIN TEMP:  35; 6HR MAX TEMP:  36;

WAUTOMA        CLOUDY    35  33  92 SE8       29.91F FOG     WCI  29
6HR MIN TEMP:  33; 6HR MAX TEMP:  36;

WISC RAPIDS    CLOUDY    33  33 100 E7        29.88F FOG     WCI  27
6HR MIN TEMP:  32; 6HR MAX TEMP:  33;

CAMP DOUGLAS   CLOUDY    32  32 100 SE7       29.87F WCI  26
$$

WIZ011>013-019>022-031-037>040-048>050-191900-
NORTHEAST WISCONSIN

CITY           SKY/WX    TMP DP  RH WIND       PRES   REMARKS
ANTIGO         FOG       32  32 100 S3        29.85F VSB 1/4
6HR MIN TEMP:  29; 6HR MAX TEMP:  32;

SHAWANO        CLOUDY    35  33  92 S3        29.90F FOG
6HR MIN TEMP:  33; 6HR MAX TEMP:  35;

OCONTO         NOT AVBL
STURGEON BAY   CLOUDY    34  32  92 S10       29.91F FOG     WCI  26
6HR MIN TEMP:  32; 6HR MAX TEMP:  34;

GREEN BAY      FOG       34  33  96 S9        29.91F VSB 1   WCI  27
6HR MIN TEMP:  34; 6HR MAX TEMP:  35;

MANITOWOC      CLOUDY    35  33  92 MISG      29.93F FOG
6HR MIN TEMP:  34; 6HR MAX TEMP:  35; 6HR PCP: TRACE;

APPLETON       FOG       32  32 100 S8        29.89F VSB 1/8 WCI  25
CLINTONVILLE   FOG       32  32 100 S6        29.90F VSB 1/4 WCI  26
OSHKOSH        FOG       32  31  96 S6        29.91F VSB 1/4 WCI  26
6HR MIN TEMP:  32; 6HR MAX TEMP:  33;

$$

WIZ032>034-041-042-053>061-191900-
SOUTHWEST WISCONSIN

CITY           SKY/WX    TMP DP  RH WIND       PRES   REMARKS
LA CROSSE      CLOUDY    35  33  92 S10       29.87F FOG     WCI  27
6HR MIN TEMP:  34; 6HR MAX TEMP:  36;

SPARTA         SUNNY     41  33  72 CALM      29.87F
6HR MIN TEMP:  24; 6HR MAX TEMP:  41;

VIROQUA        CLOUDY    32  32 100 S7        29.86F VSB<1/4 WCI  26
6HR MIN TEMP:  31; 6HR MAX TEMP:  32;

BOSCOBEL       CLOUDY    37  33  85 CALM      29.91F
6HR MIN TEMP:  33; 6HR MAX TEMP:  37;

PRAIRIE DU CHI CLOUDY    34  32  93 E6        29.89F FOG     WCI  29
6HR MIN TEMP:  32; 6HR MAX TEMP:  34;

PLATTEVILLE    CLOUDY    35  35 100 CALM      29.89F VSB 1/4
6HR MIN TEMP:  31; 6HR MAX TEMP:  35;

$$

WIZ056-057-062-063-064-067-068-191900-
SOUTH CENTRAL WISCONSIN

CITY           SKY/WX    TMP DP  RH WIND       PRES   REMARKS
REEDSBURG      CLOUDY    34  34 100 SW5       29.88F FOG     WCI  30
6HR MIN TEMP:  31; 6HR MAX TEMP:  34;

BARABOO/DELLS  MOSUNNY   35  34  98 S5        29.88F FOG     WCI  30
6HR MIN TEMP:  28; 6HR MAX TEMP:  35;

LONE ROCK      CLOUDY    34  33  96 E7        29.91F FOG     WCI  28
6HR MIN TEMP:  32; 6HR MAX TEMP:  34;

MINERAL POINT  FOG       36  36 100 SE3       29.88F VSB 1/2
MADISON        FOG       33  33 100 S6        29.91F VSB 1   WCI  28
6HR MIN TEMP:  32; 6HR MAX TEMP:  33;

MIDDLETON      CLOUDY    36  36 100 CALM      29.90F
6HR MIN TEMP:  33; 6HR MAX TEMP:  36;

WATERTOWN      FOG       33  33 100 SE5       29.91F VSB 1/2 WCI  28
6HR MIN TEMP:  32; 6HR MAX TEMP:  33;

MONROE         FOG       32  32 100 E5        29.89F VSB<1/4 WCI  27
JANESVILLE     FOG       36  36 100 SE6       29.92F VSB 1/4 WCI  31
$$

WIZ051-052-058>065-066-070>072-191900-
SOUTHEAST WISCONSIN

CITY           SKY/WX    TMP DP  RH WIND       PRES   REMARKS
MILWAUKEE      FOG       35  34  96 CALM      29.94F VSB 1/4
6HR MIN TEMP:  33; 6HR MAX TEMP:  35;

WAUKESHA       FOG       32  32 100 CALM      29.93F VSB 1/2
MILWAUKEE/TIMM FOG       34  30  86 CALM      29.95F VSB 1
RACINE         CLOUDY    35  33  92 CALM      29.96F FOG
6HR MIN TEMP:  33; 6HR MAX TEMP:  35;

KENOSHA        FOG       36  35  96 CALM      29.94F VSB 1/2
6HR MIN TEMP:  32; 6HR MAX TEMP:  36;

FOND DU LAC    CLOUDY    33  30  88 S9        29.91F FOG     WCI  25
6HR MIN TEMP:  32; 6HR MAX TEMP:  33;

SHEBOYGAN      CLOUDY    33  32  96 S9        29.92F FOG     WCI  25
6HR MIN TEMP:  29; 6HR MAX TEMP:  35;

WEST BEND      FOG       32  32 100 CALM      29.92F VSB 1/4
JUNEAU         FOG       32  32 100 SE7       29.92F VSB<1/4 WCI  26
6HR MIN TEMP:  31; 6HR MAX TEMP:  32;

$$

LSZ147-162-191900-
LAKE SUPERIOR

STATION/POSITION TIME  TEMP    WIND        PRES    WAVE
                       AIR SEA DIR/SP/G            HT/PER
                 (UTC) (F)     (DEG/KT/KT) (MB)    (FT/S)
DEVILS ISLAND    1800   37     170/  8/ 10 1008.6F
PORT WING        1740   39      40/  4/  5 1008.1F
SAXON HARBOR     1740   46     190/  3/  9 1008.5F
$$

LMZ867-665-643>646-191900-
LAKE MICHIGAN

STATION/POSITION TIME  TEMP    WIND        PRES    WAVE
                       AIR SEA DIR/SP/G            HT/PER
                 (UTC) (F)     (DEG/KT/KT) (MB)    (FT/S)
NORTHPORT PIER   1740   33     160/  2/  5 1012.9F
SISTER BAY       1650   34     190/ 10/ 12   N/A
KEWAUNEE LAKESHO 1748   33     180/ 12/ 14 1013.1F
SHEBOYGAN LAKESH 1800   33     180/ 12/ 13 1013.8F
PORT WASHINGTON  1730   34     150/  5/ 10 1015.2F
MILWAUKEE LAKESH 1750   33     140/  3/  3   N/A
KENOSHA   LAKESH 1800   34     140/  6/  7 1014.2
$$

TC  - TEMPERATURE IN CELSIUS
VSB - VISIB



USA.gov is the U.S. government's official web portal to all federal, state and local government web resources and services.